This demonstration page uses our WeatherBlox Daily Observations layout. Learn more.

Left ArrowRight Arrow

Hourly Observations for June 1, 2020

Temp ( °F °C ) Dew Point ( °F °C ) Humidity (%) Winds ( mph kmh ) Pressure ( in mb ) Visibility ( mi km ) Precip ( " mm )
12:53 am 00:53 Clear 59 15 33 0.6 38 38 WNW 8 13 29.81 1010 10 16 N/A
1:53 am 01:53 Clear 56 13.3 35 1.7 46 46 SW 14 22 29.83 1010 10 16 N/A
2:53 am 02:53 Clear 53 11.7 35 1.7 51 51 SW 13 20 29.86 1011 10 16 N/A
3:53 am 03:53 Clear 53 11.7 35 1.7 51 51 SSW 10 17 29.87 1012 10 16 N/A
4:53 am 04:53 Clear 52 11.1 35 1.7 53 53 SW 12 19 29.88 1012 10 16 N/A
5:53 am 05:53 Sunny 46 7.8 36 2.2 68 68 SW 10 17 29.90 1013 10 16 N/A
6:53 am 06:53 Sunny 54 12.2 38 3.3 55 55 WSW 12 19 29.91 1013 10 16 N/A
7:53 am 07:53 Sunny 59 15 37 2.8 44 44 SW 13 20 29.93 1014 10 16 N/A
8:53 am 08:53 Sunny 63 17.2 38 3.3 40 40 W 10 17 29.92 1013 10 16 N/A
9:53 am 09:53 Sunny 67 19.4 35 1.7 31 31 SW 8 13 29.91 1013 10 16 N/A
10:53 am 10:53 Sunny 70 21.1 35 1.7 28 28 WNW 10 17 29.90 1013 10 16 N/A
11:53 am 11:53 Sunny 72 22.2 33 0.6 24 24 W 10 17 29.88 1012 10 16 N/A
12:53 pm 12:53 Sunny 73 22.8 31 -0.6 21 21 WSW 15 24 29.88 1012 10 16 N/A
1:53 pm 13:53 Sunny 75 23.9 32 undefined 21 21 W 10 17 29.85 1011 10 16 N/A
2:53 pm 14:53 Sunny 76 24.4 36 2.2 23 23 W 18 30 29.86 1011 10 16 N/A
3:53 pm 15:53 Sunny 76 24.4 34 1.1 22 22 W 8 13 29.84 1011 10 16 N/A
4:53 pm 16:53 Sunny 77 25 30 -1.1 18 18 W 14 22 29.85 1011 10 16 N/A
5:53 pm 17:53 Mostly Sunny 76 24.4 25 -3.9 15 15 W 20 31 29.86 1011 10 16 N/A
6:53 pm 18:53 Sunny 74 23.3 28 -2.2 18 18 W 13 20 29.85 1011 10 16 N/A
7:53 pm 19:53 Cloudy 74 23.3 29 -1.7 19 19 W 17 28 29.86 1011 10 16 N/A
8:53 pm 20:53 Cloudy 71 21.7 31 -0.6 23 23 W 10 17 29.88 1012 10 16 N/A
9:53 pm 21:53 Mostly Cloudy 65 18.3 34 1.1 32 32 W 9 15 29.91 1013 10 16 N/A
10:53 pm 22:53 Mostly Clear 64 17.8 37 2.8 37 37 W 15 24 29.93 1014 10 16 N/A
11:53 pm 23:53 Clear 62 16.7 38 3.3 41 41 W 21 33 29.96 1014 10 16 N/A

Powered by AerisWeather